Regional Weather Roundup
Issued by NWS

Home | Current Version | Previous Version | Graphics & Text | Print | Product List | Glossary On
Versions: 1 2 3 4 5 6 7 8 9 10 11 12 13 14 15 16 17 18 19 20 21 22 23 24 25 26 27
000
ASUS45 KPSR 272210
RWRAZ

ARIZONA HOURLY REGIONAL WEATHER ROUNDUP
NATIONAL WEATHER SERVICE PHOENIX AZ
300 PM MST THU APR 27 2017

NOTE: FAIR INDICATES FEW OR NO CLOUDS BELOW 12,000 FEET WITH NO
SIGNIFICANT WEATHER AND/OR OBSTRUCTIONS TO VISIBILITY.

AZZ001>003-036-272300-
NORTHWEST ARIZONA

CITY           SKY/WX    TMP DP  RH WIND       PRES   REMARKS
BULLHEAD CITY  PTSUNNY   90  25   9 NE8       29.59F
KINGMAN        PTSUNNY   77  27  15 NW13G26   29.74F
$$

AZZ004>008-015-016-018-272300-
NORTH CENTRAL ARIZONA

CITY           SKY/WX    TMP DP  RH WIND       PRES   REMARKS
GRAND CANYON   MOSUNNY   62  24  23 W15G28    29.78F
WILLIAMS       PTSUNNY   64  16  15 W25G35    29.82F
PRESCOTT       CLOUDY    73  35  25 W20G30    29.77F
FLAGSTAFF      PTSUNNY   64  16  15 W24G37    29.79F
PAYSON         CLOUDY    70  32  24 SW13G23   29.80F
PAGE           MOSUNNY   69  18  14 W10G24    29.66F
$$

AZZ009>014-017-272300-
NORTHEAST ARIZONA

CITY           SKY/WX    TMP DP  RH WIND       PRES   REMARKS
WINSLOW        PTSUNNY   77  27  15 SW30G39   29.66F
SAINT JOHNS    PTSUNNY   74  26  16 W29G38    29.66F
WINDOW ROCK    MOSUNNY   66  25  21 W28G36    29.70S
SHOW LOW       PTSUNNY   64  28  25 S29G36    29.77F
$$

AZZ540-542>544-546-548-272300-
GREATER PHOENIX AREA

CITY           SKY/WX    TMP DP  RH WIND       PRES   REMARKS
PHOENIX        PTSUNNY   88  39  17 W12G22    29.59F
BUCKEYE        PTSUNNY   90  37  15 W10G18    29.61F
GLENDALE       CLOUDY    90  39  17 S16       29.61F
LUKE AFB       PTSUNNY   89  40  17 SW10G23   29.59F
DEER VALLEY    PTSUNNY   85  39  19 SW12G18   29.61F
SCOTTSDALE     CLOUDY    86  37  17 W10       29.64F
MESA-FALCON    CLOUDY   N/A N/A N/A W15       29.62F
MESA-GATEWAY   PTSUNNY   88  37  16 W14       29.63F
CHANDLER       SUNNY     90  37  15 W14       29.61F
$$

AZZ539-553-272300-
SOUTHWEST MARICOPA COUNTY AND PINAL COUNTY

CITY           SKY/WX    TMP DP  RH WIND       PRES   REMARKS
CASA GRANDE    SUNNY     89  42  19 W15G25    29.62F
GILA BEND      FAIR      91  36  14 W16       29.60F
$$

AZZ503-504-507>509-272300-
SOUTHEAST ARIZONA

CITY           SKY/WX    TMP DP  RH WIND       PRES   REMARKS
TUCSON         SUNNY     89  33  13 W12G23    29.68F
DAVIS-MONTHAN  MOSUNNY   88  34  14 W17G25    29.66F
RYAN FIELD     SUNNY     90  34  13 W18       29.67F
NOGALES        SUNNY     86  35  16 SW14G23   29.79F
SIERRA VISTA   SUNNY     81  34  18 SW21G30   29.81F
DOUGLAS        SUNNY     86  34  15 SW26G32   29.74F
SAFFORD        SUNNY     89  29  11 W28G38    29.60F
$$

AZZ532-272300-
SOUTHWEST ARIZONA

CITY           SKY/WX    TMP DP  RH WIND       PRES   REMARKS
YUMA           PTSUNNY   92  38  15 W12       29.60F
$$

CAZ041-043-047-048-061-525>527-560>570-272300-
SOUTHERN CALIFORNIA

CITY           SKY/WX    TMP DP  RH WIND       PRES   REMARKS
DOWNTOWN L.A.  PTSUNNY   84  40  21 NW9       29.73F
L.A. AIRPORT   PTSUNNY   67  53  61 W21       29.76F
SAN DIEGO      PTSUNNY   69  58  67 W8        29.81F
BURBANK        PTSUNNY   79  38  22 N20G30    29.75S
ONTARIO        CLOUDY    76  51  41 W10G21    29.74F
RIVERSIDE      CLOUDY    77  54  44 W10G20    29.74F
PALM SPRINGS   CLOUDY    92  41  17 NW14      29.63F
EL CENTRO NAS  PTSUNNY   93  34  12 E7        29.61F
IMPERIAL       MOSUNNY   92  39  15 NW5       29.59F
BLYTHE         PTSUNNY   92  38  15 VRB5      29.59F
NEEDLES        PTSUNNY   90  26  10 N7        29.60F
$$

NVZ020-UTZ003-272300-
SOUTHERN NEVADA-UTAH

CITY           SKY/WX    TMP DP  RH WIND       PRES   REMARKS
LAS VEGAS      PTSUNNY   83  17   8 N14G32    29.65F
SALT LAKE CITY PTSUNNY   50  23  34 NW17G24   29.82F
$$

NMZ009-TXZ055-272300-
NEW MEXICO-WEST TEXAS

CITY           SKY/WX    TMP DP  RH WIND       PRES   REMARKS
ALBUQUERQUE    PTSUNNY   74  25  16 W29G43    29.56F
EL PASO        MOSUNNY   86  30  13 SW21G38   29.61F
$$


........................KEY........................
SKY/WX - SKY CONDITION/WEATHER
TMP    - TEMPERATURE IN FAHRENHEIT
DP     - DEW POINT IN FAHRENHEIT
RH     - RELATIVE HUMIDITY IN PERCENT
WIND   - DIRECTION AND SPEED IN MILES PER HOUR (MPH)
VRB    - VARIABLE WIND DIRECTION
PRES   - MEAN SEA LEVEL PRESSURE IN INCHES OF MERCURY
         F - FALLING PRESSURE   R - RISING PRESSURE
         S - STEADY PRESSURE
VSB    - VISIBILITY IN MILES
HX     - HEAT INDEX IN FAHRENHEIT
WCI    - WIND CHILL INDEX IN FAHRENHEIT
TC     - TEMPERATURE IN CELSIUS WHICH IS ALSO KNOWN AS
         TEMPERATURE IN CENTIGRADE
AFB    - AIR FORCE BASE
         LUKE AFB IS LUKE AIR FORCE BASE
         DAVIS-MONTHAN IS DAVIS-MONTHAN AIR FORCE BASE
NAS    - NAVAL AIR STATION
         EL CENTRO NAS IS EL CENTRO NAVAL AIR STATION
N/A    - NOT AVAILABLE





USA.gov is the U.S. government's official web portal to all federal, state and local government web resources and services.